Weather Roundup
Issued by NWS

Home | Current Version | Previous Version | Graphics & Text | Print | Product List | Glossary Off
Versions: 1 2 3 4 5 6 7 8 9 10 11 12 13 14 15 16 17 18 19 20 21 22 23 24 25 26 27 28 29 30 31 32 33 34 35 36 37 38 39 40 41 42 43 44 45 46 47 48 49 50

554
NZUS93 KARX 211410
HRRWXR

CURRENT HOURLY OBSERVATIONS ACROSS
MUCH OF THE UPPER MISSISSIPPI VALLEY
NATIONAL WEATHER SERVICE LA CROSSE WI
800 AM CST WED FEB 21 2018


...SOUTHEAST MINNESOTA...


CITY           SKY/WX    TMP DP  RH WIND       PRES   REMARKS
ROCHESTER      FAIR       4   0  83 W12       30.54R WCI -12
ROCHESTER/MAYO FAIR       7   2  79 W5        30.56R WCI  -1
WINONA         FAIR      10   3  72 CALM      30.60R
AUSTIN         FAIR       7   1  78 NW3       30.55R
ALBERT LEA     FAIR       7   0  72 CALM      30.56R
DODGE CENTER   FAIR       1  -2  85 SW5       30.54R WCI  -8
PRESTON        FAIR       7   1  79 CALM      30.56R
OWATONNA       FAIR       0  -4  85 S3        30.56R
FARIBAULT      FAIR       1  -2  85 CALM      30.56R
$$

...ELSEWHERE IN MINNESOTA...


CITY           SKY/WX    TMP DP  RH WIND       PRES   REMARKS
MINNEAPOLIS    FAIR       3  -1  83 SW3       30.56R
INTNL FALLS    FAIR      -7 -10  87 SW7       30.34R WCI -21
DULUTH         FAIR      -1  -6  79 W10       30.39R WCI -17
RED WING       FAIR       1  -6  71 CALM      30.57R
REDWOOD FALLS  CLOUDY    -1  -7  75 W3        30.56R
MANKATO        FAIR       3  -2  79 SW6       30.58R WCI  -8
WORTHINGTON    CLOUDY     2  -5  72 S3        30.52R
FAIRMONT       CLOUDY     0  -5  79 SW7       30.58R WCI -13
$$

...SOUTHWEST WISCONSIN...


CITY           SKY/WX    TMP DP  RH WIND       PRES   REMARKS
LA CROSSE      FAIR      11   5  77 NW5       30.60R WCI   3
PRAIRIE DU CHI FAIR      14   4  66 NW12      30.60R WCI   0
BOSCOBEL       FAIR      16   7  67 NW6       30.59R WCI   7
LONE ROCK      FAIR      17  11  77 NW9       30.56R WCI   6
PLATTEVILLE    FAIR      17  13  84 NW12      30.53R WCI   4
FORT MC COY    FAIR      10   5  82 CALM      30.59R
CAMP DOUGLAS   PTSUNNY   10   5  79 W12       30.56R WCI  -4
MAUSTON-NEW LI FAIR      12   6  76 NW12      30.55R WCI  -2
VIROQUA        FAIR       9   6  88 NW6       30.53R WCI   0
WIS DELLS      FAIR      15  10  80 NW8       30.53R WCI   4
$$

...ELSEWHERE IN WISCONSIN...


CITY           SKY/WX    TMP DP  RH WIND       PRES   REMARKS
MILWAUKEE      PTSUNNY   24  14  65 NW14G22   30.47R WCI  12
MADISON        PTSUNNY   18  12  77 NW12      30.52R WCI   5
GREEN BAY      FAIR      19   9  65 NW15      30.49R WCI   5
EAU CLAIRE     FAIR       2  -2  83 W3        30.54R
BLACK RVR FLS  FAIR       8   3  80 W3        30.57R
MEDFORD        FAIR       1  -2  85 W5        30.46R WCI  -8
WAUSAU         FAIR       5   1  83 W9        30.48R WCI  -9
WIS RAPIDS     FAIR       9   2  73 NW8       30.54R WCI  -3
MARSHFIELD     FAIR       4   0  83 NW9       30.49R WCI -10
RICE LAKE      FAIR      -4  -8  84 CALM      30.53R FOG
$$

...NORTHEAST IOWA...


CITY           SKY/WX    TMP DP  RH WIND       PRES   REMARKS
WATERLOO       FAIR      11   5  77 N10       30.59R WCI  -3
DUBUQUE        FAIR      15   8  73 N15       30.53R WCI   0
DECORAH        FAIR       9   5  85 NW8       30.55R WCI  -4
MASON CITY     CLOUDY     7   2  80 NW8       30.58R WCI  -6
CHARLES CITY   FAIR      10   7  85 NW8       30.57S WCI  -1
OELWEIN        FAIR      12   7  79 N14       30.57R WCI  -3
$$

...ELSEWHERE IN IOWA...


CITY           SKY/WX    TMP DP  RH WIND       PRES   REMARKS
DES MOINES     CLOUDY    13   6  74 N10       30.62R WCI   0
IOWA CITY      FAIR      19   8  62 NW9       30.61R WCI   8
FORT DODGE     CLOUDY     6   3  87 CALM      30.60R
MARSHALLTOWN   PTCLDY    12   6  77 N10       30.60R WCI  -1
CEDAR RAPIDS   FAIR      16   8  71 N12       30.57R WCI   3
$$

...NORTHERN ILLINOIS...


CITY           SKY/WX    TMP DP  RH WIND       PRES   REMARKS
CHICAGO-OHARE  CLOUDY    27  19  72 N10       30.46R WCI  17
CHICAGO-MIDWAY PTSUNNY   29  22  75 N14       30.46R WCI  18
MOLINE         FAIR      22  15  75 NW12      30.55R WCI  10
ROCKFORD       CLOUDY    24  16  71 N9        30.51R WCI  14
PEORIA         FAIR      25  20  81 N8G20     30.51R WCI  16
$$

NOTE: "FAIR" INDICATES FEW OR NO CLOUDS BELOW 12,000 FEET WITH NO
SIGNIFICANT WEATHER AND/OR OBSTRUCTIONS TO VISIBILITY. WIND
SPEEDS ARE IN MILES-PER-HOUR.




USA.gov is the U.S. government's official web portal to all federal, state and local government web resources and services.